Temperature
6 6 6 6 6 6 6 6 7 6 6 6 6 6 6 6 7 6 6 6 6 6 6 6 6 5 5 5 5 5 4 4 3 3 3 3 3 3 3 3 3 3 3
6 6 6 6 6 6 6 6 6 6 6 6 6 6 6 6 6 6 6 6 6 6 5 5 5 5 5 4 4 4 4 3 3 3 3 3 3 3 3 3 3 3 3
5 5 5 5 5 5 5 6 6 6 6 5 5 5 6 6 5 5 5 5 5 5 5 4 4 4 4 4 4 3 3 3 3 2 2 2 2 2 2 2 2 2 2
5 5 5 5 5 5 5 5 5 5 5 5 5 5 5 5 5 5 5 5 5 5 4 4 4 4 4 3 3 3 3 2 2 2 2 2 2 2 2 2 2 2 2
4 4 4 4 4 4 4 4 4 4 4 4 4 5 5 5 4 4 4 4 4 4 4 4 4 3 3 3 2 2 2 2 2 1 1 1 1 1 1 1 1 1 1
4 4 3 4 4 3 4 4 4 4 4 4 4 4 4 4 4 4 4 4 4 4 4 3 3 3 3 2 2 2 2 1 1 1 1 0 0 0 0 0 0 0 0
3 3 3 3 3 3 3 3 3 3 3 3 3 4 4 4 3 3 3 3 3 3 3 3 3 2 2 2 2 1 1 1 1 1 0 0 -0 -0 -0 -0 -0 -0 -1
3 3 3 3 3 3 3 3 3 3 3 3 3 3 3 3 3 3 3 2 2 2 2 2 2 2 1 1 1 1 1 1 0 0 0 -0 -0 -0 -1 -1 -1 -1 -0
3 2 2 2 2 2 2 2 2 2 2 2 2 2 2 2 2 2 2 2 2 2 2 1 2 1 1 1 1 0 0 0 0 -0 -0 -0 -0 -0 -0 -1 -1 -1 -1
2 2 2 2 2 2 2 2 2 2 2 2 2 2 1 2 2 1 1 1 1 1 1 1 1 1 0 0 0 0 -0 -0 -0 -0 -0 -0 -0 -0 -1 -1 -1 -2 -2
1 1 1 1 1 1 1 1 1 1 1 1 1 1 1 1 1 1 1 1 1 1 0 0 0 0 -0 -0 -0 -0 -1 -1 -1 -1 -1 -1 -1 -1 -1 -1 -2 -2 -2
1 1 1 1 1 1 1 1 1 1 1 1 0 0 0 0 0 0 0 0 0 -0 -0 -0 -0 -1 -1 -0 -1 -1 -1 -1 -1 -1 -1 -1 -1 -1 -1 -1 -2 -2 -2
0 0 1 0 0 0 0 0 0 0 0 -0 -0 -0 -0 -0 -0 -0 -0 -0 -1 -1 -1 -1 -1 -1 -1 -1 -1 -1 -1 -1 -1 -1 -1 -1 -2 -2 -2 -2 -2 -2 -2
-0 -0 0 -0 -0 -0 -0 -0 -0 -0 -1 -1 -1 -1 -1 -1 -1 -1 -1 -1 -1 -1 -1 -1 -2 -1 -2 -2 -2 -2 -2 -2 -2 -2 -2 -2 -2 -2 -2 -2 -2 -2 -2
-1 -1 -1 -1 -1 -1 -0 -0 -1 -1 -1 -1 -1 -1 -1 -1 -1 -1 -1 -1 -2 -2 -2 -2 -2 -2 -2 -2 -2 -2 -2 -2 -2 -2 -2 -2 -2 -2 -2 -3 -3 -3 -3
-2 -1 -1 -1 -1 -1 -1 -1 -1 -1 -1 -1 -1 -1 -1 -1 -2 -2 -2 -2 -2 -2 -2 -2 -2 -3 -3 -3 -3 -3 -3 -3 -3 -3 -3 -3 -3 -3 -3 -3 -3 -4 -4
-2 -2 -2 -2 -2 -2 -2 -2 -1 -1 -2 -2 -2 -2 -2 -2 -2 -2 -2 -2 -2 -3 -3 -3 -3 -3 -3 -3 -3 -3 -3 -3 -3 -3 -3 -3 -3 -3 -4 -4 -4 -4 -4
-2 -2 -2 -3 -3 -2 -2 -2 -2 -2 -2 -2 -2 -2 -2 -3 -3 -3 -3 -3 -3 -3 -3 -3 -4 -4 -4 -3 -3 -3 -3 -4 -4 -4 -4 -4 -4 -4 -4 -4 -4 -4 -5
-3 -3 -3 -3 -3 -3 -3 -3 -3 -3 -3 -3 -3 -3 -3 -3 -3 -3 -3 -3 -3 -3 -4 -4 -4 -4 -4 -4 -4 -4 -4 -4 -4 -4 -4 -4 -4 -4 -4 -4 -5 -5 -5
-3 -3 -3 -3 -3 -4 -4 -4 -4 -4 -4 -4 -4 -4 -4 -4 -4 -4 -4 -4 -4 -4 -4 -4 -4 -4 -4 -4 -4 -4 -4 -4 -4 -4 -5 -5 -5 -4 -5 -5 -5 -5 -5
-4 -4 -4 -4 -4 -4 -4 -4 -4 -4 -4 -4 -4 -4 -4 -4 -4 -4 -4 -4 -4 -4 -4 -4 -4 -4 -4 -4 -4 -4 -4 -4 -4 -5 -5 -5 -5 -5 -5 -5 -5 -5 -5
-4 -4 -4 -4 -4 -4 -4 -4 -5 -5 -5 -5 -5 -5 -5 -5 -4 -4 -4 -4 -4 -4 -5 -5 -4 -4 -4 -4 -4 -4 -4 -4 -5 -5 -5 -5 -5 -5 -5 -5 -5 -6 -5
-5 -5 -5 -5 -5 -5 -5 -5 -5 -5 -5 -5 -5 -5 -5 -5 -5 -5 -5 -5 -5 -5 -5 -5 -5 -5 -5 -4 -4 -4 -4 -4 -5 -5 -5 -5 -5 -5 -5 -6 -6 -6 -5
-5 -5 -5 -5 -5 -5 -5 -5 -5 -5 -5 -5 -5 -5 -5 -6 -5 -5 -5 -5 -5 -5 -5 -5 -5 -5 -5 -5 -5 -5 -5 -5 -5 -5 -5 -5 -5 -6 -6 -5 -6 -6 -6
-5 -5 -5 -6 -6 -6 -6 -6 -6 -6 -6 -6 -6 -6 -6 -6 -6 -6 -6 -6 -6 -5 -5 -5 -5 -5 -5 -5 -5 -5 -5 -5 -5 -5 -5 -5 -5 -6 -6 -6 -6 -6 -6
-6 -6 -6 -6 -6 -6 -6 -6 -6 -6 -6 -6 -6 -6 -6 -6 -6 -6 -6 -6 -6 -6 -6 -5 -5 -5 -5 -5 -5 -5 -5 -5 -5 -5 -5 -5 -5 -6 -6 -6 -6 -6 -6
Wind_Speed
5 5 4 4 4 5 5 5 5 5 6 6 6 6 5 5 5 4 4 5 6 5 5 5 5 4 3 2 2 2 2 2 4 4 3 3 3 4 6 6 7 7 9
4 4 4 4 4 5 5 5 5 5 5 6 6 6 5 5 5 5 5 5 6 6 6 5 5 4 4 3 2 3 2 2 3 5 4 3 4 4 5 5 6 7 8
3 3 3 4 5 5 5 4 5 5 5 5 5 5 5 5 5 6 5 5 6 6 6 6 6 5 4 3 3 3 2 2 2 4 5 4 4 3 4 5 6 6 8
2 3 4 4 5 4 4 4 4 5 5 5 5 5 5 5 5 5 5 5 5 5 4 4 5 6 6 5 3 3 3 2 2 3 4 4 4 3 3 4 6 5 6
3 3 3 3 3 3 3 4 4 4 4 4 4 4 4 4 5 5 5 4 5 4 4 3 4 4 5 5 4 3 3 3 3 3 4 4 4 4 4 4 6 6 5
2 3 2 2 3 3 4 4 4 4 4 4 4 5 5 4 5 6 5 4 5 5 4 3 3 3 3 4 5 4 4 4 4 3 4 5 6 5 4 4 5 5 5
1 2 2 2 3 4 4 4 4 4 4 4 3 4 5 5 6 6 6 4 4 4 4 3 2 2 2 2 3 3 4 5 5 4 5 6 6 5 4 5 5 5 6
1 1 1 1 3 3 4 4 3 4 4 4 3 3 3 3 5 6 6 4 3 4 4 4 3 3 2 2 2 2 3 4 4 3 4 6 5 5 4 5 5 5 4
1 1 1 2 2 3 3 3 3 3 3 3 3 3 3 3 4 5 5 3 3 3 2 3 3 3 3 2 1 2 2 3 4 4 5 5 6 6 4 2 2 2 4
2 2 2 2 2 3 3 3 3 3 3 3 3 3 3 3 4 5 5 3 3 2 2 2 2 2 2 2 2 2 3 3 3 3 3 4 3 3 4 2 2 2 2
2 1 1 1 2 2 2 2 3 3 3 3 3 2 3 3 4 5 5 3 4 3 2 2 2 2 2 3 2 2 3 2 2 2 2 2 2 2 3 3 2 2 2
1 1 1 1 1 2 3 2 3 3 4 3 3 2 1 2 3 4 4 3 3 3 3 2 2 2 2 2 2 2 2 2 0 1 1 2 2 2 3 3 3 3 3
1 1 0 1 1 2 3 3 3 3 3 3 3 2 1 1 2 3 3 3 3 2 2 2 2 1 1 1 1 2 1 1 0 1 1 2 2 2 2 2 2 3 3
1 1 0 0 0 1 2 3 3 3 3 3 3 3 2 1 2 2 2 2 2 2 2 2 1 1 2 1 2 2 1 0 0 1 1 2 2 1 1 2 2 2 2
1 1 1 0 0 0 1 1 2 3 3 4 4 4 3 3 3 4 3 3 2 2 3 2 2 1 1 1 1 1 1 1 1 1 1 1 2 2 2 2 2 2 2
1 1 1 0 0 0 1 1 2 0 0 1 1 2 2 3 3 4 3 3 4 5 4 2 1 1 1 0 1 1 1 1 1 1 1 1 1 1 2 2 2 2 2
1 1 1 0 1 1 1 1 1 2 3 2 1 1 2 3 3 3 4 4 4 4 3 2 2 1 1 1 1 1 1 1 1 0 0 1 1 1 1 2 2 2 2
1 1 0 1 1 1 1 1 1 1 1 1 1 1 1 2 3 4 5 4 2 1 1 2 2 2 2 2 2 2 1 0 0 0 0 0 0 1 1 1 1 2 2
1 0 1 1 1 1 1 1 1 1 1 1 1 1 1 2 3 4 3 2 2 1 1 1 2 2 2 2 2 1 1 1 1 1 0 0 0 0 1 1 1 2 2
1 0 0 1 1 1 1 1 1 1 1 1 1 1 1 2 1 1 1 1 1 2 2 2 2 2 2 2 1 1 1 1 1 1 1 0 0 0 0 1 1 1 1
0 0 0 0 1 1 1 1 1 1 1 1 1 1 1 1 1 1 1 1 2 2 2 2 2 2 2 2 2 2 2 1 1 1 1 1 0 0 0 0 1 1 1
0 0 1 1 0 0 1 1 1 1 2 2 1 1 1 1 1 1 1 1 1 2 2 2 2 2 2 2 3 3 2 2 1 1 1 1 1 0 0 0 0 1 1
0 1 1 1 1 1 1 1 1 1 1 1 1 1 1 1 1 1 1 1 1 1 2 2 2 2 2 2 3 3 3 2 2 2 2 1 1 1 0 0 0 0 1
0 1 1 1 1 1 1 1 1 1 1 1 1 1 1 1 1 1 1 1 1 1 1 2 2 2 2 2 2 2 3 3 2 2 3 2 2 1 1 1 0 0 0
1 1 1 1 1 1 1 1 1 1 1 1 1 1 1 1 1 1 1 1 1 1 1 1 2 2 2 2 2 2 3 3 2 2 2 2 2 2 1 1 1 0 0
1 1 1 1 1 1 1 1 1 1 1 1 1 1 1 1 1 1 1 1 1 1 1 1 1 1 2 2 2 3 3 2 2 2 2 2 2 2 2 1 1 1 1
Wind_Direction
190 187 186 195 198 198 192 190 185 181 181 185 184 183 184 188 187 186 194 195 192 193 190 190 202 198 195 194 196 210 220 219 247 275 274 272 275 281 303 305 307 304 303
190 181 185 188 193 192 192 189 182 182 185 189 181 182 187 191 190 194 199 204 194 194 196 195 202 193 193 195 195 211 220 222 229 261 278 274 272 274 284 291 308 306 303
175 179 186 194 190 189 190 186 180 179 181 184 179 185 191 194 195 202 203 203 198 199 198 197 199 187 197 203 202 219 227 233 230 246 271 276 278 288 293 294 295 298 303
168 180 192 203 194 191 187 181 181 177 179 184 185 189 193 198 200 204 199 196 193 194 196 196 196 192 197 200 209 219 225 230 233 246 268 280 287 290 290 298 302 296 297
175 185 197 202 189 180 181 182 178 177 181 182 181 186 190 196 203 200 194 189 184 184 185 188 197 201 209 213 220 219 221 228 235 251 266 286 289 292 290 289 293 298 293
185 196 201 189 183 182 183 181 174 174 175 172 179 185 191 203 203 201 192 185 183 180 187 192 201 203 216 235 238 238 236 230 232 246 265 271 276 279 288 290 293 303 297
188 203 196 190 190 193 189 180 176 171 165 171 182 186 196 203 201 198 191 179 181 183 186 190 205 212 224 233 250 270 274 269 256 243 250 259 265 264 270 279 282 280 280
199 218 205 192 194 188 178 178 178 166 169 177 181 178 181 201 196 192 181 168 171 180 191 194 195 204 217 227 250 269 280 280 275 261 247 257 262 261 256 263 272 282 283
222 236 228 214 199 187 182 185 180 166 170 180 175 175 183 199 192 179 170 161 158 172 182 177 182 201 214 229 229 250 282 296 305 299 298 295 293 294 295 293 297 307 305
260 250 228 217 200 198 192 185 174 167 175 176 177 181 186 196 192 178 162 162 160 168 176 182 198 211 217 229 225 233 261 284 296 313 323 324 324 316 314 282 245 266 301
275 260 236 215 205 188 171 170 167 167 163 166 172 184 189 192 191 186 178 166 167 169 183 202 221 231 255 266 269 245 262 294 282 280 304 315 330 339 337 331 299 245 262
274 252 222 197 195 161 154 161 161 160 159 163 165 171 182 195 190 190 192 183 166 167 186 203 218 235 276 288 289 280 308 346 27 351 335 321 320 324 322 324 321 308 285
330 302 254 190 186 167 163 167 164 162 167 174 177 182 191 196 198 193 192 182 175 169 178 189 194 209 320 344 333 328 347 37 36 319 297 297 297 297 313 335 347 346 335
325 306 312 138 127 152 161 167 173 178 182 183 188 190 191 190 186 182 176 167 159 159 147 145 124 88 65 44 15 357 357 307 221 253 292 308 320 340 348 346 353 360 1
313 299 291 244 176 129 140 177 190 200 198 190 192 184 184 197 211 193 167 173 168 157 119 109 97 76 55 29 13 1 358 348 343 344 334 342 347 2 359 354 358 1 353
300 298 284 252 175 141 110 43 15 63 243 249 176 157 197 200 182 177 175 168 151 143 126 125 136 157 205 267 304 318 326 316 304 318 338 337 344 352 352 353 2 0 340
260 262 244 204 177 165 145 145 89 43 55 73 103 127 154 165 160 160 158 152 152 146 140 150 171 202 225 244 261 255 258 280 279 228 12 345 337 338 352 353 353 352 343
308 292 209 178 167 154 166 161 139 123 70 38 34 111 136 148 152 151 148 136 133 138 152 178 194 212 224 230 236 242 246 250 155 102 64 339 315 334 351 347 335 339 339
325 201 156 147 138 122 125 123 125 125 127 96 50 80 125 133 140 145 140 139 160 181 201 210 212 217 227 229 226 216 203 197 171 149 172 210 229 7 356 347 343 345 352
338 327 185 148 138 128 131 134 141 147 152 153 166 187 134 110 122 124 139 163 181 205 221 226 222 212 209 213 206 191 187 190 174 171 191 209 214 139 336 327 345 353 350
25 2 17 123 154 164 168 170 170 167 174 181 199 208 166 154 173 184 202 206 211 215 217 218 211 201 198 197 192 188 192 202 191 184 186 191 191 145 354 340 345 359 4
67 66 81 112 127 158 168 165 167 181 186 183 191 188 171 166 189 192 202 209 208 206 199 197 203 197 196 199 195 191 193 195 191 185 185 187 182 180 168 61 23 20 25
96 109 99 103 123 141 101 127 147 156 154 152 156 152 150 163 176 179 185 191 190 188 185 182 183 192 200 203 205 197 196 203 204 201 190 183 178 180 171 139 113 66 24
143 141 138 151 151 151 149 143 141 147 145 148 160 168 172 185 189 183 186 182 173 175 173 174 182 192 196 194 196 201 204 208 209 199 186 180 179 179 166 144 135 31 44
133 142 160 173 169 168 168 160 157 160 164 170 168 164 170 187 190 175 166 158 153 153 167 173 175 184 186 192 191 190 198 207 205 187 176 172 167 164 153 148 138 91 66
136 148 177 181 180 184 182 177 175 174 180 187 174 169 177 187 182 175 165 155 156 172 181 183 191 185 178 180 180 180 180 183 175 164 161 159 152 150 142 137 131 117 105
Height
1440 1442 1444 1446 1447 1449 1451 1452 1454 1456 1458 1459 1461 1462 1464 1465 1467 1468 1469 1469 1470 1471 1472 1473 1474 1475 1475 1476 1476 1476 1476 1475 1473 1471 1471 1470 1469 1468 1466 1465 1463 1461 1459
1437 1438 1440 1442 1444 1445 1446 1448 1449 1451 1453 1455 1456 1457 1459 1461 1462 1463 1464 1465 1466 1466 1467 1468 1469 1469 1470 1471 1471 1471 1470 1470 1469 1466 1466 1465 1464 1463 1461 1459 1458 1456 1453
1434 1435 1436 1438 1440 1441 1442 1444 1445 1447 1449 1450 1451 1453 1455 1456 1458 1459 1460 1460 1461 1462 1462 1463 1464 1465 1465 1466 1466 1466 1465 1465 1464 1463 1461 1460 1459 1458 1456 1454 1453 1450 1448
1430 1432 1433 1434 1435 1437 1438 1439 1441 1442 1444 1446 1447 1449 1451 1452 1453 1455 1455 1456 1457 1458 1459 1459 1460 1460 1461 1461 1461 1461 1461 1460 1460 1459 1457 1455 1454 1453 1452 1449 1447 1445 1442
1427 1428 1429 1430 1432 1433 1434 1435 1437 1439 1440 1442 1443 1445 1447 1448 1449 1450 1451 1452 1452 1453 1454 1455 1456 1456 1456 1457 1457 1456 1456 1456 1455 1454 1453 1451 1449 1448 1446 1444 1442 1439 1437
1424 1425 1426 1427 1428 1429 1430 1432 1433 1435 1437 1438 1439 1441 1442 1443 1445 1446 1447 1448 1448 1449 1450 1451 1452 1452 1452 1453 1453 1452 1453 1452 1451 1450 1448 1447 1445 1444 1442 1440 1438 1434 1431
1421 1422 1423 1424 1425 1426 1427 1428 1429 1431 1433 1434 1436 1437 1438 1440 1441 1443 1443 1444 1445 1446 1446 1446 1447 1447 1448 1448 1448 1448 1448 1448 1447 1446 1444 1442 1441 1439 1438 1435 1433 1431 1428
1418 1419 1419 1420 1421 1423 1424 1425 1426 1428 1429 1431 1432 1433 1435 1436 1437 1438 1439 1440 1441 1441 1442 1442 1443 1443 1444 1444 1444 1443 1443 1442 1442 1441 1440 1439 1437 1435 1434 1432 1429 1427 1424
1415 1416 1417 1417 1418 1419 1420 1421 1423 1424 1426 1428 1429 1430 1432 1433 1434 1435 1436 1436 1437 1437 1438 1439 1439 1439 1439 1440 1440 1439 1438 1438 1437 1436 1436 1434 1433 1431 1430 1427 1425 1423 1420
1413 1414 1414 1415 1415 1416 1417 1418 1420 1422 1423 1425 1426 1428 1429 1429 1430 1431 1432 1433 1433 1434 1435 1435 1436 1435 1435 1436 1436 1435 1434 1434 1433 1432 1431 1430 1429 1427 1426 1424 1422 1420 1417
1411 1412 1412 1412 1413 1413 1414 1415 1417 1419 1420 1422 1423 1425 1426 1426 1427 1428 1429 1430 1430 1431 1431 1432 1432 1432 1432 1433 1433 1432 1432 1431 1430 1429 1427 1426 1425 1424 1423 1421 1419 1418 1416
1409 1409 1409 1410 1410 1410 1411 1413 1415 1416 1417 1419 1420 1421 1422 1423 1424 1425 1426 1427 1428 1428 1428 1429 1429 1429 1430 1430 1429 1429 1429 1428 1427 1426 1425 1423 1422 1421 1420 1418 1417 1416 1414
1407 1407 1407 1407 1407 1408 1409 1410 1411 1413 1414 1416 1417 1418 1419 1420 1421 1422 1424 1424 1425 1425 1426 1426 1426 1426 1426 1426 1426 1426 1426 1425 1424 1423 1422 1421 1420 1419 1418 1416 1415 1413 1412
1404 1404 1404 1404 1404 1405 1406 1407 1409 1410 1411 1413 1414 1415 1416 1417 1419 1420 1421 1421 1422 1422 1423 1423 1424 1424 1423 1423 1423 1423 1423 1423 1422 1422 1421 1419 1418 1417 1416 1414 1413 1411 1409
1402 1402 1402 1402 1402 1403 1404 1405 1406 1408 1409 1410 1411 1412 1414 1415 1416 1417 1418 1418 1419 1419 1419 1420 1420 1420 1420 1420 1420 1420 1421 1420 1420 1419 1418 1417 1416 1415 1414 1413 1412 1410 1408
1399 1399 1400 1400 1400 1401 1402 1404 1405 1406 1407 1408 1409 1411 1412 1413 1414 1414 1415 1416 1416 1416 1417 1417 1417 1418 1418 1418 1418 1418 1418 1418 1418 1417 1416 1416 1415 1414 1413 1412 1411 1409 1408
1398 1397 1398 1398 1399 1400 1400 1401 1402 1404 1405 1406 1407 1408 1410 1411 1411 1412 1413 1414 1414 1414 1414 1414 1415 1416 1416 1416 1416 1416 1416 1416 1416 1415 1415 1414 1414 1413 1412 1411 1410 1409 1408
1396 1396 1396 1396 1397 1398 1399 1400 1401 1401 1403 1404 1406 1407 1408 1409 1409 1410 1411 1412 1412 1412 1412 1412 1413 1413 1414 1414 1414 1415 1415 1415 1414 1414 1414 1413 1413 1412 1411 1410 1409 1408 1407
1396 1395 1396 1396 1396 1397 1398 1399 1400 1401 1402 1403 1404 1405 1406 1407 1408 1409 1409 1409 1409 1410 1410 1411 1411 1411 1412 1412 1413 1413 1413 1413 1412 1412 1412 1412 1412 1411 1410 1410 1409 1408 1407
1395 1395 1395 1395 1395 1396 1397 1398 1399 1399 1400 1401 1402 1403 1404 1404 1405 1406 1407 1407 1408 1408 1409 1409 1409 1409 1410 1410 1411 1411 1411 1411 1411 1411 1411 1411 1411 1410 1409 1409 1408 1407 1406
1394 1394 1394 1394 1394 1395 1396 1397 1397 1398 1399 1400 1401 1402 1402 1402 1403 1404 1405 1405 1406 1406 1407 1407 1407 1408 1408 1409 1409 1410 1410 1410 1410 1410 1410 1410 1410 1409 1409 1409 1408 1407 1406
1393 1393 1393 1393 1393 1394 1394 1395 1396 1397 1397 1398 1398 1399 1400 1401 1401 1402 1403 1403 1404 1405 1405 1406 1406 1406 1406 1407 1408 1408 1408 1409 1409 1409 1409 1409 1409 1409 1409 1408 1408 1407 1406
1392 1392 1392 1392 1393 1393 1394 1394 1395 1395 1396 1396 1397 1397 1398 1398 1399 1400 1401 1402 1402 1403 1403 1404 1404 1404 1405 1406 1406 1407 1407 1407 1408 1408 1408 1408 1408 1408 1408 1408 1407 1407 1406
1391 1391 1391 1391 1392 1392 1392 1393 1393 1394 1394 1395 1395 1395 1396 1397 1397 1398 1399 1399 1400 1401 1402 1402 1403 1403 1404 1404 1405 1405 1406 1406 1407 1407 1407 1407 1407 1407 1407 1407 1407 1407 1406
1390 1390 1390 1390 1390 1391 1391 1391 1392 1392 1393 1393 1394 1394 1395 1395 1396 1396 1397 1398 1398 1399 1400 1401 1401 1402 1402 1403 1404 1404 1405 1405 1406 1406 1407 1407 1406 1406 1406 1406 1406 1406 1406
1389 1389 1389 1389 1389 1389 1390 1390 1390 1391 1391 1392 1392 1393 1393 1394 1394 1395 1395 1396 1397 1398 1398 1399 1400 1401 1401 1402 1403 1403 1404 1404 1405 1406 1406 1406 1406 1406 1406 1406 1406 1406 1406